When you browse on this site, cookies collect data to enhance your experience and personalize the content and advertising you see.
Visit our Privacy Policy to learn more. By continuing to use the site, you agree to this use of cookies and data.
  • In Lithuania
  • List of Countries
  • For 7 days
  • Water Temperature
  • Weather Map
  • Weather Widgets
  • user-avatar
    Login

    Hourly Weather Charlottetown

    Today, 5 June, Friday

    Time Temperature Precipitation Wind Pressure Humidity
    00:00 +11°C° 0 mm 6 mps 756 mmHg 81%
    01:00 +11°C° 0 mm 6 mps 756 mmHg 81%
    02:00 +12°C° 0 mm 5 mps 756 mmHg 83%
    03:00 +12°C° 0 mm 5 mps 756 mmHg 84%
    04:00 +12°C° 0 mm 5 mps 757 mmHg 84%
    05:00 +12°C° 0 mm 5 mps 757 mmHg 85%
    06:00 +13°C° 0 mm 6 mps 757 mmHg 84%
    07:00 +14°C° 0 mm 6 mps 757 mmHg 82%
    08:00 +15°C° 0 mm 6 mps 758 mmHg 81%
    09:00 +16°C° 0 mm 5 mps 757 mmHg 78%
    10:00 +19°C° 0 mm 5 mps 757 mmHg 75%
    11:00 +20°C° 0 mm 4 mps 757 mmHg 72%
    12:00 +20°C° 0 mm 4 mps 757 mmHg 72%
    13:00 +20°C° 0 mm 4 mps 756 mmHg 73%
    14:00 +20°C° 0 mm 5 mps 756 mmHg 74%
    15:00 +19°C° 0 mm 6 mps 756 mmHg 75%
    16:00 +18°C° 0 mm 7 mps 755 mmHg 76%
    17:00 +18°C° 0 mm 8 mps 755 mmHg 78%
    18:00 +17°C° 0 mm 7 mps 755 mmHg 79%
    19:00 +17°C° 0 mm 7 mps 755 mmHg 80%
    20:00 +16°C° 0 mm 6 mps 755 mmHg 81%
    21:00 +16°C° 0 mm 6 mps 755 mmHg 83%
    22:00 +15°C° 0 mm 6 mps 755 mmHg 85%
    23:00 +15°C° 0 mm 5 mps 755 mmHg 88%

    Tomorrow, 6 June, Saturday

    Time Temperature Precipitation Wind Pressure Humidity
    00:00 +14°C° 0 mm 5 mps 756 mmHg 91%
    01:00 +13°C° 0 mm 4 mps 756 mmHg 94%
    02:00 +13°C° 0 mm 4 mps 756 mmHg 97%
    03:00 +13°C° 0 mm 3 mps 756 mmHg 97%
    04:00 +14°C° 0 mm 2 mps 756 mmHg 97%
    05:00 +14°C° 0 mm 2 mps 756 mmHg 97%
    06:00 +14°C° 0 mm 2 mps 756 mmHg 96%
    07:00 +15°C° 0 mm 2 mps 756 mmHg 95%
    08:00 +15°C° 0 mm 1 mps 756 mmHg 94%
    09:00 +16°C° 0 mm 2 mps 755 mmHg 92%
    10:00 +17°C° 0 mm 2 mps 755 mmHg 90%
    11:00 +18°C° 0 mm 3 mps 754 mmHg 88%
    12:00 +18°C° 0 mm 3 mps 754 mmHg 88%
    13:00 +18°C° 0 mm 4 mps 754 mmHg 89%
    14:00 +18°C° 0 mm 4 mps 753 mmHg 90%
    15:00 +18°C° 0.2 mm 4 mps 753 mmHg 92%
    16:00 +18°C° 0.2 mm 4 mps 752 mmHg 94%
    17:00 +16°C° 0.2 mm 5 mps 752 mmHg 96%
    18:00 +17°C° 0.3 mm 4 mps 752 mmHg 96%
    19:00 +17°C° 0.3 mm 4 mps 752 mmHg 97%
    20:00 +17°C° 0.3 mm 4 mps 752 mmHg 97%
    21:00 +15°C° 0.2 mm 4 mps 751 mmHg 97%
    22:00 +14°C° 0.2 mm 4 mps 751 mmHg 97%
    23:00 +14°C° 0.2 mm 4 mps 751 mmHg 98%

    Day after tomorrow, 7 June, Sunday

    Time Temperature Precipitation Wind Pressure Humidity
    00:00 +12°C° 0.1 mm 5 mps 751 mmHg 97%
    01:00 +9°C° 0.1 mm 5 mps 751 mmHg 97%
    02:00 +8°C° 0.1 mm 6 mps 751 mmHg 97%
    03:00 +7°C° 0.2 mm 6 mps 751 mmHg 97%
    04:00 +6°C° 0.2 mm 7 mps 752 mmHg 96%
    05:00 +5°C° 0.2 mm 7 mps 752 mmHg 96%
    06:00 +5°C° 0.2 mm 7 mps 752 mmHg 95%
    07:00 +6°C° 0.2 mm 7 mps 753 mmHg 94%
    08:00 +6°C° 0.2 mm 7 mps 753 mmHg 93%
    09:00 +6°C° 0.3 mm 7 mps 754 mmHg 93%
    10:00 +6°C° 0.3 mm 7 mps 754 mmHg 93%
    11:00 +7°C° 0.3 mm 6 mps 754 mmHg 93%
    12:00 +6°C° 0.1 mm 7 mps 754 mmHg 90%
    13:00 +6°C° 0.1 mm 7 mps 754 mmHg 88%
    14:00 +6°C° 0.1 mm 7 mps 754 mmHg 85%
    15:00 +6°C° 0 mm 7 mps 754 mmHg 80%
    16:00 +6°C° 0 mm 7 mps 754 mmHg 76%
    17:00 +6°C° 0 mm 7 mps 754 mmHg 71%
    18:00 +6°C° 0 mm 7 mps 755 mmHg 70%
    19:00 +7°C° 0 mm 6 mps 755 mmHg 69%
    20:00 +7°C° 0 mm 6 mps 755 mmHg 68%
    21:00 +7°C° 0 mm 6 mps 755 mmHg 70%
    22:00 +7°C° 0 mm 6 mps 755 mmHg 72%
    23:00 +7°C° 0 mm 6 mps 755 mmHg 74%

    8 June, Monday

    Time Temperature Precipitation Wind Pressure Humidity
    00:00 +6°C° 0 mm 5 mps 755 mmHg 76%
    01:00 +6°C° 0 mm 5 mps 755 mmHg 78%
    02:00 +6°C° 0 mm 5 mps 755 mmHg 80%
    03:00 +6°C° 0 mm 5 mps 755 mmHg 82%
    04:00 +6°C° 0 mm 5 mps 755 mmHg 84%
    05:00 +6°C° 0 mm 5 mps 755 mmHg 86%
    06:00 +7°C° 0 mm 6 mps 756 mmHg 82%
    07:00 +8°C° 0 mm 6 mps 756 mmHg 78%
    08:00 +9°C° 0 mm 7 mps 757 mmHg 74%
    09:00 +10°C° 0 mm 7 mps 757 mmHg 72%
    10:00 +10°C° 0 mm 7 mps 757 mmHg 70%
    11:00 +10°C° 0 mm 7 mps 757 mmHg 68%
    12:00 +11°C° 0 mm 7 mps 758 mmHg 68%
    13:00 +11°C° 0 mm 6 mps 758 mmHg 67%
    14:00 +11°C° 0 mm 6 mps 758 mmHg 66%
    15:00 +12°C° 0 mm 5 mps 758 mmHg 67%
    16:00 +11°C° 0 mm 4 mps 759 mmHg 67%
    17:00 +11°C° 0 mm 3 mps 759 mmHg 68%
    18:00 +10°C° 0 mm 2 mps 760 mmHg 74%
    19:00 +8°C° 0 mm 2 mps 760 mmHg 79%
    20:00 +8°C° 0 mm 1 mps 760 mmHg 85%
    21:00 +7°C° 0 mm 1 mps 761 mmHg 84%
    22:00 +7°C° 0 mm 1 mps 761 mmHg 83%
    23:00 +6°C° 0 mm 2 mps 761 mmHg 82%

    9 June, Tuesday

    Time Temperature Precipitation Wind Pressure Humidity
    00:00 +6°C° 0 mm 2 mps 761 mmHg 82%
    01:00 +5°C° 0 mm 3 mps 761 mmHg 82%
    02:00 +5°C° 0 mm 3 mps 761 mmHg 82%
    03:00 +7°C° 0 mm 3 mps 762 mmHg 81%
    04:00 +7°C° 0 mm 3 mps 762 mmHg 80%
    05:00 +7°C° 0 mm 3 mps 762 mmHg 80%
    06:00 +8°C° 0 mm 4 mps 762 mmHg 76%
    07:00 +11°C° 0 mm 4 mps 763 mmHg 73%
    08:00 +12°C° 0 mm 4 mps 763 mmHg 69%
    09:00 +14°C° 0 mm 4 mps 763 mmHg 66%
    10:00 +17°C° 0 mm 4 mps 763 mmHg 63%
    11:00 +18°C° 0 mm 4 mps 763 mmHg 59%
    12:00 +19°C° 0 mm 4 mps 762 mmHg 57%
    13:00 +19°C° 0 mm 4 mps 762 mmHg 55%
    14:00 +20°C° 0 mm 5 mps 762 mmHg 53%
    15:00 +20°C° 0 mm 4 mps 762 mmHg 55%
    16:00 +20°C° 0 mm 4 mps 762 mmHg 57%
    17:00 +19°C° 0 mm 4 mps 763 mmHg 58%
    18:00 +17°C° 0 mm 5 mps 763 mmHg 59%
    19:00 +16°C° 0 mm 6 mps 763 mmHg 59%
    20:00 +15°C° 0 mm 7 mps 763 mmHg 59%
    21:00 +15°C° 0 mm 7 mps 763 mmHg 62%
    22:00 +14°C° 0 mm 6 mps 764 mmHg 64%
    23:00 +13°C° 0 mm 6 mps 764 mmHg 66%

    10 June, Wednesday

    Time Temperature Precipitation Wind Pressure Humidity
    00:00 +13°C° 0 mm 6 mps 764 mmHg 67%
    01:00 +13°C° 0 mm 6 mps 764 mmHg 68%
    02:00 +13°C° 0 mm 5 mps 764 mmHg 69%
    03:00 +13°C° 0 mm 5 mps 764 mmHg 68%
    04:00 +13°C° 0 mm 5 mps 764 mmHg 67%
    05:00 +13°C° 0 mm 5 mps 765 mmHg 65%
    06:00 +13°C° 0 mm 6 mps 765 mmHg 66%
    07:00 +13°C° 0 mm 6 mps 765 mmHg 66%
    08:00 +13°C° 0 mm 6 mps 765 mmHg 67%
    09:00 +15°C° 0 mm 6 mps 765 mmHg 65%
    10:00 +16°C° 0 mm 6 mps 765 mmHg 63%
    11:00 +17°C° 0 mm 7 mps 765 mmHg 61%
    12:00 +19°C° 0 mm 6 mps 765 mmHg 60%
    13:00 +20°C° 0 mm 6 mps 765 mmHg 58%
    14:00 +22°C° 0 mm 6 mps 764 mmHg 57%
    15:00 +21°C° 0 mm 6 mps 765 mmHg 59%
    16:00 +21°C° 0 mm 6 mps 765 mmHg 61%
    17:00 +20°C° 0 mm 6 mps 765 mmHg 64%
    18:00 +19°C° 0 mm 6 mps 765 mmHg 63%
    19:00 +17°C° 0 mm 6 mps 765 mmHg 63%
    20:00 +16°C° 0 mm 7 mps 765 mmHg 62%
    21:00 +15°C° 0 mm 7 mps 765 mmHg 61%
    22:00 +14°C° 0 mm 7 mps 766 mmHg 60%
    23:00 +12°C° 0 mm 7 mps 766 mmHg 59%
    Show more